Location: Aldenham
(51.6667°N, 0.3500°W)
Time: 16:58:53
(UTC+00:00)

Vanguard 2 Rocket - Pass Details

Date: 18 February 2026
Orbit: 553 x 3286 km, 32.9° (Epoch: 11 March)

Event Time Altitude Azimuth Distance (km) Brightness Sun altitude
Rises 18:06:53 0° 265° (W) 5,795 13.6 -7.7°
Reaches altitude 10° 18:15:24 10° 234° (SW) 3,903 11.2 -9.0°
Maximum altitude 18:17:13 11° 223° (SW) 3,651 10.8 -9.2°
Drops below altitude 10° 18:18:53 10° 213° (SSW) 3,507 10.5 -9.5°
Sets 18:24:33 0° 176° (S) 3,811 10.1 -10.4°
